TimeCDT,TemperatureF,Dew PointF,Humidity,Sea Level PressureIn,VisibilityMPH,Wind Direction,Wind SpeedMPH,Gust SpeedMPH,PrecipitationIn,Events,Conditions,WindDirDegrees,DateUTC
12:15 AM,71.6,62.6,73,30.09,10.0,Calm,Calm,-,N/A,,Clear,0,2013-09-11 05:15:00
12:35 AM,71.6,62.6,73,30.09,10.0,Calm,Calm,-,N/A,,Clear,0,2013-09-11 05:35:00
12:55 AM,71.6,62.6,73,30.09,10.0,Calm,Calm,-,N/A,,Clear,0,2013-09-11 05:55:00
1:15 AM,71.6,64.4,78,30.09,10.0,Calm,Calm,-,N/A,,Clear,0,2013-09-11 06:15:00
1:55 AM,71.6,64.4,78,30.10,10.0,Calm,Calm,-,N/A,,Clear,0,2013-09-11 06:55:00
2:15 AM,69.8,64.4,83,30.09,10.0,Calm,Calm,-,N/A,,Clear,0,2013-09-11 07:15:00
2:35 AM,71.6,62.6,73,30.10,10.0,Calm,Calm,-,N/A,,Clear,0,2013-09-11 07:35:00
2:55 AM,69.8,62.6,78,30.09,10.0,Calm,Calm,-,N/A,,Clear,0,2013-09-11 07:55:00
3:15 AM,69.8,62.6,78,30.09,10.0,Calm,Calm,-,N/A,,Clear,0,2013-09-11 08:15:00
3:35 AM,71.6,64.4,78,30.09,10.0,Calm,Calm,-,N/A,,Clear,0,2013-09-11 08:35:00
3:55 AM,69.8,64.4,83,30.09,10.0,Calm,Calm,-,N/A,,Clear,0,2013-09-11 08:55:00
4:15 AM,69.8,64.4,83,30.09,10.0,Calm,Calm,-,N/A,,Clear,0,2013-09-11 09:15:00
4:35 AM,69.8,64.4,83,30.09,10.0,Calm,Calm,-,N/A,,Clear,0,2013-09-11 09:35:00
4:55 AM,69.8,64.4,83,30.09,10.0,Calm,Calm,-,N/A,,Clear,0,2013-09-11 09:55:00
5:15 AM,69.8,64.4,83,30.09,10.0,Calm,Calm,-,N/A,,Clear,0,2013-09-11 10:15:00
5:35 AM,71.6,64.4,78,30.10,10.0,Calm,Calm,-,N/A,,Clear,0,2013-09-11 10:35:00
5:55 AM,69.8,64.4,83,30.10,10.0,Calm,Calm,-,N/A,,Clear,0,2013-09-11 10:55:00
6:15 AM,69.8,64.4,83,30.10,10.0,Calm,Calm,-,N/A,,Clear,0,2013-09-11 11:15:00
6:35 AM,68.0,64.4,88,30.11,10.0,Calm,Calm,-,N/A,,Clear,0,2013-09-11 11:35:00
6:55 AM,69.8,64.4,83,30.11,10.0,Calm,Calm,-,N/A,,Clear,0,2013-09-11 11:55:00
7:15 AM,69.8,64.4,83,30.12,10.0,Calm,Calm,-,N/A,,Clear,0,2013-09-11 12:15:00
7:35 AM,69.8,64.4,83,30.12,10.0,Calm,Calm,-,N/A,,Clear,0,2013-09-11 12:35:00
7:55 AM,69.8,64.4,83,30.13,10.0,Calm,Calm,-,N/A,,Clear,0,2013-09-11 12:55:00
8:15 AM,73.4,64.4,73,30.13,10.0,Calm,Calm,-,N/A,,Clear,0,2013-09-11 13:15:00
8:35 AM,77.0,66.2,69,30.13,10.0,Calm,Calm,-,N/A,,Clear,0,2013-09-11 13:35:00
8:55 AM,78.8,66.2,65,30.14,10.0,Calm,Calm,-,N/A,,Clear,0,2013-09-11 13:55:00
9:15 AM,80.6,66.2,61,30.14,10.0,Calm,Calm,-,N/A,,Clear,0,2013-09-11 14:15:00
9:35 AM,82.4,64.4,54,30.14,10.0,Calm,Calm,-,N/A,,Clear,0,2013-09-11 14:35:00
9:55 AM,86.0,64.4,48,30.15,10.0,Calm,Calm,-,N/A,,Clear,0,2013-09-11 14:55:00
10:15 AM,86.0,64.4,48,30.15,10.0,Calm,Calm,-,N/A,,Clear,0,2013-09-11 15:15:00
10:35 AM,86.0,64.4,48,30.15,10.0,Calm,Calm,-,N/A,,Clear,0,2013-09-11 15:35:00
10:55 AM,87.8,64.4,46,30.14,10.0,Calm,Calm,-,N/A,,Clear,0,2013-09-11 15:55:00
11:15 AM,89.6,64.4,43,30.14,10.0,SE,4.6,-,N/A,,Clear,140,2013-09-11 16:15:00
11:35 AM,87.8,62.6,43,30.14,10.0,Calm,Calm,-,N/A,,Clear,0,2013-09-11 16:35:00
11:55 AM,91.4,62.6,38,30.13,10.0,NE,5.8,-,N/A,,Scattered Clouds,50,2013-09-11 16:55:00
12:15 PM,91.4,62.6,38,30.13,10.0,SE,4.6,-,N/A,,Scattered Clouds,130,2013-09-11 17:15:00
12:35 PM,89.6,60.8,38,30.12,10.0,Calm,Calm,-,N/A,,Clear,0,2013-09-11 17:35:00
12:55 PM,91.4,60.8,36,30.11,10.0,South,5.8,-,N/A,,Scattered Clouds,170,2013-09-11 17:55:00
1:15 PM,91.4,60.8,36,30.11,10.0,Calm,Calm,-,N/A,,Scattered Clouds,0,2013-09-11 18:15:00
1:35 PM,91.4,60.8,36,30.10,10.0,East,3.5,-,N/A,,Mostly Cloudy,90,2013-09-11 18:35:00
1:55 PM,95.0,59.0,30,30.09,10.0,SSE,10.4,-,N/A,,Mostly Cloudy,150,2013-09-11 18:55:00
2:15 PM,96.8,59.0,28,30.08,10.0,East,4.6,-,N/A,,Scattered Clouds,80,2013-09-11 19:15:00
2:35 PM,96.8,59.0,28,30.07,10.0,South,4.6,9.2,N/A,,Clear,170,2013-09-11 19:35:00
2:55 PM,98.6,59.0,27,30.06,10.0,SSE,12.7,16.1,N/A,,Clear,150,2013-09-11 19:55:00
3:15 PM,96.8,57.2,27,30.04,10.0,ESE,6.9,16.1,N/A,,Scattered Clouds,110,2013-09-11 20:15:00
3:35 PM,95.0,59.0,30,30.03,10.0,ENE,8.1,-,N/A,,Scattered Clouds,60,2013-09-11 20:35:00
3:55 PM,96.8,59.0,28,30.02,10.0,ENE,9.2,-,N/A,,Scattered Clouds,70,2013-09-11 20:55:00
4:15 PM,96.8,57.2,27,30.02,10.0,East,8.1,-,N/A,,Mostly Cloudy,90,2013-09-11 21:15:00
4:35 PM,95.0,59.0,30,30.02,10.0,ESE,4.6,-,N/A,,Scattered Clouds,110,2013-09-11 21:35:00
4:55 PM,89.6,62.6,40,30.01,10.0,Calm,Calm,-,N/A,Rain,Light Rain,0,2013-09-11 21:55:00
5:15 PM,91.4,60.8,36,30.01,10.0,Calm,Calm,-,N/A,,Clear,0,2013-09-11 22:15:00
5:35 PM,95.0,59.0,30,30.01,10.0,SE,3.5,-,N/A,,Scattered Clouds,130,2013-09-11 22:35:00
5:55 PM,87.8,64.4,46,30.02,10.0,SSE,15.0,27.6,N/A,,Overcast,160,2013-09-11 22:55:00
6:15 PM,84.2,66.2,55,30.04,10.0,South,4.6,-,N/A,Rain-Thunderstorm,Light Thunderstorms and Rain,180,2013-09-11 23:15:00
6:35 PM,82.4,64.4,54,30.04,10.0,West,4.6,-,N/A,,Light Drizzle,270,2013-09-11 23:35:00
6:55 PM,80.6,64.4,58,30.03,10.0,Calm,Calm,-,N/A,,Clear,0,2013-09-11 23:55:00
7:15 PM,78.8,64.4,61,30.04,10.0,NNE,4.6,-,N/A,,Clear,20,2013-09-12 00:15:00
7:35 PM,78.8,64.4,61,30.04,10.0,Calm,Calm,-,N/A,,Clear,0,2013-09-12 00:35:00
7:55 PM,78.8,64.4,61,30.04,10.0,Calm,Calm,-,N/A,,Clear,0,2013-09-12 00:55:00
8:15 PM,78.8,64.4,61,30.04,10.0,Calm,Calm,-,N/A,,Clear,0,2013-09-12 01:15:00
8:35 PM,77.0,64.4,65,30.04,10.0,Calm,Calm,-,N/A,,Clear,0,2013-09-12 01:35:00
8:55 PM,77.0,66.2,69,30.04,10.0,Calm,Calm,-,N/A,,Clear,0,2013-09-12 01:55:00
9:15 PM,75.2,64.4,69,30.05,10.0,Calm,Calm,-,N/A,,Clear,0,2013-09-12 02:15:00
9:35 PM,75.2,66.2,73,30.06,10.0,Calm,Calm,-,N/A,,Clear,0,2013-09-12 02:35:00
9:55 PM,75.2,66.2,73,30.07,10.0,Calm,Calm,-,N/A,,Clear,0,2013-09-12 02:55:00
10:15 PM,75.2,66.2,73,30.07,10.0,Calm,Calm,-,N/A,,Clear,0,2013-09-12 03:15:00
10:35 PM,75.2,66.2,73,30.07,10.0,Calm,Calm,-,N/A,,Clear,0,2013-09-12 03:35:00
10:55 PM,75.2,68.0,78,30.07,10.0,Calm,Calm,-,N/A,,Clear,0,2013-09-12 03:55:00
11:15 PM,75.2,68.0,78,30.07,10.0,Calm,Calm,-,N/A,,Clear,0,2013-09-12 04:15:00
11:35 PM,77.0,68.0,74,30.07,10.0,Calm,Calm,-,N/A,,Clear,0,2013-09-12 04:35:00
11:55 PM,73.4,68.0,83,30.06,10.0,Calm,Calm,-,N/A,,Clear,0,2013-09-12 04:55:00